CYGFM03

Last updated on Sun Oct 06 2024 00:02:17 GMT+0000 (Coordinated Universal Time)

1 41891U 16078H 24279.46683208 .00029488 00000+0 93670-3 0 9994 2 41891 34.9462 304.8026 0009625 144.5821 215.5535 15.31640313433062
UTC large
Height (km)
Speed (km/s)
/
Latitude / Longitude
Inclination (degrees)
Orbital Period (minutes)
Azimuth
Elevation
Range (km)
Doppler Factor

Next 0 passes for location: London (51.5072 / 0.1276)

Sorry there are no passes over London.